User: anonymous
Location: Unspecified
(0.0000°N, 0.0000°E)
Time: 13:43:44
(UTC+00:00)
Language:

RAX-2 - Orbit

View from above orbital plane
View from above orbital plane
View from above satellite
View from above satellite

Ground track
Ground track

The orbit data is extracted from the following two-line orbital elements,

1 37853U 11061D   14233.42659848  .00002916  00000-0  20497-3 0  8918
2 37853 101.7092 294.2119 0214896 227.9142 202.7382 14.89956371152378
Epoch (UTC): 21 August 2014 10:14:18
Eccentricity: 0.0214896
inclination: 101.7092°
perigee height: 448 km
apogee height: 748 km
right ascension of ascending node: 294.2119°
argument of perigee: 227.9142°
revolutions per day: 14.89956371
mean anomaly at epoch: 202.7382°
orbit number at epoch: 15237

The dashed part of the orbit path shows where the satellite is in the earth's shadow,  

DLR